Flag for France Weather past 2 weeks in Paris, France

Now
64 °F

Passing clouds.


Feels Like: 64 °F
Forecast: 52 / 66 °F
Wind: 9 mph from West

Location: Villacoublay

Current Time: May 30, 2015 at 5:27:52 PM

Latest Report: May 30, 2015 at 5:00 PM


Visibility: N/A

Pressure: 30.04 "Hg

Humidity: 43%

Dew point: 41 °F

Location of ParisLocation

Historic Weather in Paris — Graph

°F

Paris temperature yesterday

Maximum temperature yesterday: 64 °F (at 3:30 PM)
Minimum temperature yesterday: 52 °F (at 8:00 AM)
Average temperature yesterday: 58 °F

Past Weeks' High & Low Weather Summary

 TemperatureHumidityPressure
High70 °F (May 23, 4:30 PM)100% (May 16, 3:00 AM)30.39 "Hg (May 16, 3:00 AM)
Low39 °F (May 20, 5:30 AM)40% (May 27, 5:30 PM)29.77 "Hg (May 18, 6:00 PM)
Average56 °F72%30.12 "Hg
* Reported May 15 4:00 PM — May 30 4:30 PM, Paris, Weather by CustomWeather, © 2015

Note: Actual official high and low records may vary slightly from our data, if they occured in-between our weather recording intervals... More about our weather records

Advertising

Paris weather history for previous 24 hours

 ConditionsComfort  
Time TempWeatherWind HumidityBarometerVisibility
4:30 PM
Sat, May 30
64 °FPassing clouds.5 mph43%30.04 "HgN/A
4:00 PM64 °FSunny.6 mph46%30.04 "Hg10 mi
3:30 PM63 °FPartly sunny.7 mph45%30.04 "HgN/A
3:00 PM63 °FPartly sunny.6 mph45%30.04 "HgN/A
2:30 PM63 °FScattered clouds.6 mph49%30.04 "HgN/A
2:00 PM61 °FPartly sunny.10 mph48%30.04 "HgN/A
1:30 PM61 °FBroken clouds.10 mph48%30.04 "HgN/A
1:00 PM59 °FScattered clouds.9 mph48%30.04 "HgN/A
12:30 PM59 °FPassing clouds.8 mph48%30.04 "HgN/A
12:00 PM59 °FPartly sunny.8 mph55%30.04 "HgN/A
11:30 AM57 °FScattered clouds.7 mph59%30.04 "HgN/A
11:00 AM57 °FScattered clouds.10 mph51%30.04 "HgN/A
10:30 AM55 °FPartly sunny.10 mph63%30.04 "HgN/A
10:00 AM54 °FScattered clouds.12 mph67%30.04 "HgN/A
9:30 AM54 °FPassing clouds.12 mph67%30.01 "HgN/A
9:00 AM54 °FPassing clouds.9 mph72%30.01 "HgN/A
8:30 AM52 °FScattered clouds.9 mph77%30.01 "HgN/A
8:00 AM52 °FPartly sunny.7 mph82%30.01 "HgN/A
7:30 AM50 °FPartly sunny.8 mph88%30.01 "HgN/A
7:00 AM48 °FMostly cloudy.5 mph94%29.98 "HgN/A
6:30 AM48 °FPassing clouds.6 mph94%29.98 "HgN/A
6:00 AM48 °FPassing clouds.5 mph94%29.98 "HgN/A
5:30 AM48 °FPassing clouds.5 mph94%29.95 "HgN/A
5:00 AM50 °FOvercast.6 mph94%29.95 "HgN/A
4:30 AM50 °FMostly cloudy.7 mph94%29.95 "HgN/A
4:00 AM50 °FMostly cloudy.6 mph94%29.95 "HgN/A
3:30 AM50 °FLight rain. Partly cloudy.7 mph94%29.95 "HgN/A
3:00 AM50 °FMostly cloudy.5 mph100%29.95 "HgN/A
2:30 AM50 °FPassing clouds.5 mph100%29.95 "HgN/A
2:00 AM52 °FLight rain. Passing clouds.7 mph94%29.95 "HgN/A
1:30 AM52 °FLight rain. Overcast.7 mph94%29.95 "HgN/A
1:00 AM54 °FPassing clouds.10 mph88%29.95 "HgN/A
12:30 AM55 °FRain. Partly cloudy.12 mph82%29.92 "HgN/A
12:00 AM57 °FPassing clouds.10 mph72%29.92 "HgN/A
11:30 PM
Fri, May 29
57 °FPartly cloudy.9 mph72%29.92 "HgN/A
11:00 PM57 °FPartly cloudy.12 mph72%29.92 "HgN/A
10:30 PM57 °FMostly cloudy.12 mph72%29.89 "HgN/A
10:00 PM59 °FOvercast.10 mph63%29.89 "HgN/A
9:30 PM59 °FCloudy.10 mph63%29.89 "HgN/A
9:00 PM61 °FPassing clouds.9 mph59%29.89 "HgN/A
8:30 PM61 °FPassing clouds.10 mph59%29.86 "HgN/A
8:00 PM61 °FPassing clouds.10 mph59%29.86 "HgN/A
7:30 PM61 °FPassing clouds.10 mph59%29.86 "HgN/A
7:00 PM63 °FBroken clouds.10 mph56%29.86 "HgN/A
6:30 PM63 °FOvercast.12 mph56%29.86 "HgN/A
6:00 PM63 °FCloudy.13 mph52%29.86 "HgN/A
5:30 PM63 °FBroken clouds.14 mph56%29.86 "HgN/A
5:00 PM64 °FPartly sunny.10 mph56%29.86 "HgN/A
Weather by CustomWeather, © 2015

See weather overviewHow to use our weather pages